Weather History for KMCD - September, 2013

Change the Weather History Date:

Sunday, September 29, 2013

  Actual Average Record
Temperature  
Mean Temperature 58 °F -  
Max Temperature 66 °F 57 °F 73 °F (1982)
Min Temperature 50 °F 45 °F 34 °F (1984)
Degree Days  
Heating Degree Days 6    
Growing Degree Days 8 (Base 50)    
Moisture  
Dew Point 52 °F    
Average Humidity 81    
Maximum Humidity 98    
Minimum Humidity 60    
Precipitation  
Precipitation 0.14 in - - ()
Sea Level Pressure  
Sea Level Pressure 29.95 in    
Wind  
Wind Speed 10 mph (WSW)    
Max Wind Speed 21 mph    
Max Gust Speed 26 mph    
Visibility 10 miles    
Events Rain    
Averages and records for this station are not official NWS values.
T = Trace of Precipitation, MM = Missing Value Source: NWS Daily Summary

Daily Weather History Graph

Daily Weather History Graph

Search for Another Location

Airport or City:

Trip Planner

Search our weather history database for the weather conditions in past years. The results will help you decide how hot, cold, wet, or windy it might be!

Date:

Astronomy

Sep. 29, 2013 Rise Set
Actual Time 7:34 AM EDT 7:22 PM EDT
Civil Twilight 7:04 AM EDT 7:51 PM EDT
Nautical Twilight 6:30 AM EDT 8:26 PM EDT
Astronomical Twilight 5:54 AM EDT 9:01 PM EDT
Moon 2:00 AM EDT 4:30 PM EDT
Length of Visible Light 12h 46m
Length of Day
11h 47m
Waning Crescent, 27% of the Moon is Illuminated
Sep 29
Waning Crescent
Oct 4
New
Oct 11
First Quarter
Oct 18
Full
Oct 26
Last Quarter

Hourly Weather History & Observations

Time (EDT) Temp. Dew Point Humidity Pressure Visibility Wind Dir Wind Speed Gust Speed Precip Events Conditions
12:17 AM 66.2 °F 52.3 °F 61% 29.84 in 10.0 mi SSE 12.7 mph 25.3 mph N/A   Overcast
12:37 AM 66.2 °F 52.5 °F 61% 29.83 in 10.0 mi SSE 12.7 mph 23.0 mph N/A   Overcast
12:57 AM 66.4 °F 52.2 °F 60% 29.82 in 10.0 mi SSE 10.4 mph 21.9 mph N/A   Overcast
1:17 AM 66.0 °F 52.9 °F 63% 29.82 in 10.0 mi SSE 12.7 mph 18.4 mph N/A   Overcast
1:38 AM 65.5 °F 53.4 °F 65% 29.82 in 10.0 mi South 10.4 mph 17.3 mph N/A   Overcast
1:57 AM 66.9 °F 53.2 °F 61% 29.83 in 10.0 mi SSW 20.7 mph 26.5 mph N/A   Overcast
2:17 AM 63.3 °F 57.2 °F 80% 29.84 in 7.0 mi SSW 12.7 mph 23.0 mph 0.01 in Rain Rain
2:38 AM 62.8 °F 57.6 °F 83% 29.83 in 10.0 mi SSW 10.4 mph 17.3 mph 0.02 in Rain Light Rain
2:57 AM 62.2 °F 57.9 °F 86% 29.84 in 7.0 mi SW 12.7 mph 18.4 mph 0.02 in   Overcast
3:17 AM 61.2 °F 59.2 °F 93% 29.84 in 5.0 mi SW 10.4 mph 16.1 mph 0.02 in Rain Light Rain
3:37 AM 61.0 °F 60.3 °F 97% 29.84 in 2.5 mi WSW 11.5 mph 19.6 mph 0.05 in Rain Rain
3:57 AM 60.4 °F 59.9 °F 98% 29.84 in 5.0 mi West 13.8 mph 20.7 mph 0.07 in Rain Light Rain
4:18 AM 60.1 °F 59.5 °F 98% 29.85 in 7.0 mi West 15.0 mph 21.9 mph 0.02 in Rain Rain
4:37 AM 55.8 °F 54.0 °F 94% 29.87 in 7.0 mi NW 11.5 mph 26.5 mph 0.04 in Rain Light Rain
4:57 AM 55.0 °F 54.0 °F 96% 29.85 in 10.0 mi NNW 8.1 mph - 0.04 in Rain Light Rain
5:18 AM 54.9 °F 53.8 °F 96% 29.87 in 10.0 mi WNW 5.8 mph - N/A   Overcast
5:37 AM 54.9 °F 53.6 °F 96% 29.88 in 10.0 mi WNW 8.1 mph - 0.01 in   Overcast
5:57 AM 55.4 °F 53.6 °F 94% 29.89 in 10.0 mi West 6.9 mph - 0.01 in   Overcast
6:18 AM 55.4 °F 53.6 °F 94% 29.91 in 10.0 mi West 5.8 mph - N/A   Mostly Cloudy
6:37 AM 55.0 °F 53.6 °F 95% 29.90 in 10.0 mi WNW 6.9 mph - N/A   Scattered Clouds
6:57 AM 55.0 °F 53.6 °F 95% 29.91 in 10.0 mi WNW 6.9 mph - N/A   Scattered Clouds
7:18 AM 55.0 °F 53.8 °F 96% 29.91 in 10.0 mi West 4.6 mph - N/A   Scattered Clouds
7:37 AM 55.0 °F 53.6 °F 95% 29.93 in 10.0 mi WNW 9.2 mph - N/A   Scattered Clouds
7:57 AM 54.7 °F 52.2 °F 91% 29.92 in 10.0 mi WNW 6.9 mph - N/A   Clear
8:18 AM 54.5 °F 52.3 °F 92% 29.93 in 10.0 mi West 6.9 mph - N/A   Clear
8:37 AM 54.1 °F 51.8 °F 92% 29.94 in 10.0 mi West 9.2 mph - N/A   Clear
8:57 AM 53.8 °F 51.4 °F 92% 29.95 in 10.0 mi West 8.1 mph - N/A   Clear
9:18 AM 54.7 °F 52.0 °F 91% 29.96 in 10.0 mi WNW 10.4 mph - N/A   Clear
9:37 AM 55.0 °F 51.8 °F 89% 29.97 in 10.0 mi WNW 9.2 mph 17.3 mph N/A   Clear
9:57 AM 55.8 °F 51.4 °F 85% 29.97 in 10.0 mi WNW 9.2 mph - N/A   Clear
10:17 AM 56.8 °F 50.4 °F 79% 29.97 in 10.0 mi WNW 9.2 mph - N/A   Clear
10:37 AM 57.2 °F 49.8 °F 76% 29.98 in 10.0 mi WNW 10.4 mph 16.1 mph N/A   Clear
10:58 AM 57.7 °F 48.7 °F 72% 29.98 in 10.0 mi WNW 10.4 mph - N/A   Scattered Clouds
11:17 AM 57.7 °F 48.9 °F 72% 29.99 in 10.0 mi West 8.1 mph - N/A   Scattered Clouds
11:37 AM 57.4 °F 49.3 °F 74% 29.99 in 10.0 mi West 9.2 mph 18.4 mph N/A   Overcast
11:58 AM 58.5 °F 48.7 °F 70% 30.00 in 10.0 mi NW 4.6 mph - N/A   Mostly Cloudy
12:17 PM 58.8 °F 48.7 °F 69% 30.00 in 10.0 mi WNW 6.9 mph - N/A   Scattered Clouds
12:37 PM 58.1 °F 49.3 °F 72% 30.00 in 10.0 mi WNW 8.1 mph - N/A   Mostly Cloudy
12:58 PM 59.0 °F 49.8 °F 72% 30.01 in 10.0 mi West 9.2 mph - N/A   Mostly Cloudy
1:17 PM 59.0 °F 49.5 °F 71% 30.01 in 10.0 mi West 8.1 mph - N/A   Scattered Clouds
1:37 PM 59.7 °F 50.2 °F 71% 30.01 in 10.0 mi WSW 6.9 mph - N/A   Scattered Clouds
1:58 PM 59.5 °F 50.0 °F 71% 30.00 in 10.0 mi WSW 8.1 mph - N/A   Scattered Clouds
2:17 PM 59.9 °F 50.5 °F 71% 30.00 in 10.0 mi West 6.9 mph - N/A   Clear
2:38 PM 59.5 °F 50.0 °F 71% 30.00 in 10.0 mi SW 11.5 mph - N/A   Clear
2:57 PM 59.0 °F 49.8 °F 72% 29.99 in 10.0 mi WSW 9.2 mph - N/A   Clear
3:18 PM 59.2 °F 50.0 °F 72% 29.99 in 10.0 mi SW 4.6 mph - N/A   Clear
3:38 PM 59.4 °F 50.4 °F 72% 29.99 in 10.0 mi SW 6.9 mph - N/A   Clear
3:57 PM 59.0 °F 49.1 °F 70% 29.99 in 10.0 mi SW 9.2 mph - N/A   Clear
4:18 PM 59.7 °F 48.9 °F 67% 29.99 in 10.0 mi SW 5.8 mph - N/A   Clear
4:38 PM 59.9 °F 50.0 °F 70% 29.99 in 10.0 mi WSW 9.2 mph - N/A   Clear
4:57 PM 60.8 °F 51.3 °F 71% 29.99 in 10.0 mi WSW 9.2 mph - N/A   Clear
5:18 PM 60.8 °F 50.4 °F 68% 29.99 in 10.0 mi WSW 5.8 mph - N/A   Clear
5:38 PM 60.8 °F 49.1 °F 65% 29.99 in 10.0 mi WSW 9.2 mph - N/A   Clear
5:57 PM 60.8 °F 48.9 °F 65% 29.99 in 10.0 mi WSW 9.2 mph - N/A   Clear
6:18 PM 59.9 °F 48.7 °F 67% 29.99 in 10.0 mi West 8.1 mph - N/A   Clear
6:37 PM 59.5 °F 48.9 °F 68% 30.00 in 10.0 mi WSW 8.1 mph - N/A   Clear
6:58 PM 58.5 °F 49.6 °F 72% 30.00 in 10.0 mi WSW 8.1 mph - N/A   Clear
7:18 PM 57.2 °F 50.2 °F 77% 30.00 in 10.0 mi WSW 8.1 mph - N/A   Clear
7:37 PM 56.5 °F 50.2 °F 79% 30.00 in 10.0 mi WSW 8.1 mph - N/A   Clear
7:58 PM 55.8 °F 50.9 °F 84% 30.00 in 10.0 mi WSW 6.9 mph - N/A   Clear
8:18 PM 55.6 °F 51.4 °F 86% 30.00 in 10.0 mi WSW 8.1 mph - N/A   Clear
8:37 PM 55.4 °F 51.1 °F 85% 30.00 in 10.0 mi WSW 6.9 mph - N/A   Clear
8:58 PM 54.5 °F 51.1 °F 88% 30.01 in 10.0 mi WSW 6.9 mph - N/A   Clear
9:18 PM 54.5 °F 51.3 °F 89% 30.00 in 10.0 mi WSW 8.1 mph - N/A   Clear
9:37 PM 54.5 °F 51.3 °F 89% 30.00 in 10.0 mi WSW 8.1 mph - N/A   Clear
9:58 PM 53.4 °F 51.3 °F 92% 30.01 in 10.0 mi WSW 6.9 mph - N/A   Clear
10:18 PM 53.6 °F 51.6 °F 93% 30.01 in 10.0 mi WSW 8.1 mph - N/A   Clear
10:37 PM 53.1 °F 51.1 °F 93% 30.01 in 10.0 mi WSW 5.8 mph - N/A   Clear
10:58 PM 52.2 °F 50.9 °F 95% 30.01 in 10.0 mi WSW 5.8 mph - N/A   Clear
11:17 PM 51.8 °F 50.5 °F 95% 30.00 in 10.0 mi West 4.6 mph - N/A   Clear
11:38 PM 51.1 °F 50.4 °F 97% 30.00 in 10.0 mi WSW 5.8 mph - N/A   Clear
11:57 PM 50.9 °F 50.0 °F 97% 30.00 in 10.0 mi WSW 4.6 mph - N/A   Clear